Amsterdam, Netherlands

2:26 AM CET on March 25, 2017 (GMT +0100)
Amsterdam

Weather History for 06240 - November, 2013

Change the Weather History Date:

Monday, November 11, 2013

  Actual Average Record
Temperature  
Mean Temperature 41 °F -  
Max Temperature 49 °F 46 °F - ()
Min Temperature 33 °F 37 °F - ()
Degree Days  
Heating Degree Days 24    
Moisture  
Dew Point 39 °F    
Average Humidity 84    
Maximum Humidity 100    
Minimum Humidity 60    
Precipitation  
Precipitation 0.00 in - - ()
Sea Level Pressure  
Sea Level Pressure 30.29 in    
Wind  
Wind Speed 7 mph ()    
Max Wind Speed 17 mph    
Max Gust Speed -    
Visibility 7.9 miles    
Events Fog , Rain    
T = Trace of Precipitation, MM = Missing Value Source: Averaged Metar Reports

Daily Weather History Graph

Daily Weather History Graph

Search for Another Location

Airport or City:

Trip Planner

Search our weather history database for the weather conditions in past years. The results will help you decide how hot, cold, wet, or windy it might be!

Date:

Astronomy

Nov. 11, 2013 Rise Set
Actual Time 7:54 AM CET 4:54 PM CET
Civil Twilight 7:17 AM CET 5:31 PM CET
Nautical Twilight 6:36 AM CET 6:12 PM CET
Astronomical Twilight 5:56 AM CET 6:52 PM CET
Moon 2:09 PM CET (11/11) 12:34 AM CET (11/11)
Length of Visible Light 10h 13m
Length of Day
8h 59m
Waxing Gibbous, 63% of the Moon is Illuminated
Nov 11
Waxing Gibbous
Nov 17
Full
Nov 25
Last Quarter
Dec 3
New
Dec 9
First Quarter

Hourly Weather History & Observations

Time (CET) Temp. Windchill Dew Point Humidity Pressure Visibility Wind Dir Wind Speed Gust Speed Precip Events Conditions
12:25 AM 39.2 °F - 37.4 °F 93% 30.21 in 6.2 mi Variable 1.2 mph - N/A   Partly Cloudy
12:55 AM 37.4 °F 34.9 °F 35.6 °F 93% 30.24 in 6.2 mi SW 3.5 mph - N/A Rain Light Rain Showers
1:00 AM 38 °F - 37 °F 93% 30.25 in 16 mi SSW 2.2 mph - - Rain Rain Showers
1:25 AM 41.0 °F - 39.2 °F 93% 30.24 in 6.2 mi Variable 1.2 mph - N/A   Partly Cloudy
1:55 AM 39.2 °F - 37.4 °F 93% 30.24 in 6.2 mi South 1.2 mph - N/A   Partly Cloudy
2:25 AM 37.4 °F 32.8 °F 35.6 °F 93% 30.24 in 6.2 mi SSW 5.8 mph - N/A   Partly Cloudy
2:55 AM 37.4 °F 33.8 °F 35.6 °F 93% 30.27 in 6.2 mi SSW 4.6 mph - N/A   Partly Cloudy
3:25 AM 37.4 °F 34.9 °F 37.4 °F 100% 30.27 in 6.2 mi South 3.5 mph - N/A   Partly Cloudy
3:55 AM 37.4 °F - 35.6 °F 93% 30.27 in 6.2 mi SSE 2.3 mph - N/A   Partly Cloudy
4:00 AM 37 °F - 37 °F 99% 30.28 in 13 mi SSE 2.2 mph - -   Partly Cloudy
4:25 AM 37.4 °F 34.9 °F 37.4 °F 100% 30.27 in 6.2 mi SSE 3.5 mph - N/A Fog Shallow Fog
4:55 AM 35.6 °F 32.8 °F 35.6 °F 100% 30.27 in 6.2 mi South 3.5 mph - N/A   Partly Cloudy
5:25 AM 37.4 °F 34.9 °F 37.4 °F 100% 30.30 in 6.2 mi SSE 3.5 mph - N/A Fog Shallow Fog
5:55 AM 37.4 °F 33.8 °F 35.6 °F 93% 30.30 in 6.2 mi SSE 4.6 mph - N/A   Partly Cloudy
6:25 AM 35.6 °F 29.9 °F 33.8 °F 93% 30.30 in 6.2 mi South 6.9 mph - N/A   Partly Cloudy
6:55 AM 35.6 °F 30.7 °F 33.8 °F 93% 30.30 in 6.2 mi South 5.8 mph - N/A   Partly Cloudy
7:00 AM 35 °F - 34 °F 93% 30.31 in 18 mi South 6.7 mph - -   Partly Cloudy
7:25 AM 37.4 °F 32.8 °F 35.6 °F 93% 30.30 in 6.2 mi South 5.8 mph - N/A   Partly Cloudy
7:55 AM 37.4 °F 32.8 °F 35.6 °F 93% 30.30 in 6.2 mi South 5.8 mph - N/A   Partly Cloudy
8:25 AM 39.2 °F 34.2 °F 37.4 °F 93% 30.30 in 6.2 mi South 6.9 mph - N/A   Partly Cloudy
8:55 AM 41.0 °F 39.0 °F 39.2 °F 93% 30.30 in - South 3.5 mph - N/A   Clear
9:25 AM 42.8 °F 39.3 °F 41.0 °F 93% 30.33 in - South 5.8 mph - N/A   Clear
9:55 AM 46.4 °F 42.4 °F 42.8 °F 87% 30.33 in - South 8.1 mph - N/A   Clear
10:00 AM 46 °F - 42 °F 81% 30.35 in 18 mi South 6.7 mph - -   Mostly Cloudy
10:25 AM 46.4 °F 41.9 °F 42.8 °F 87% 30.33 in - South 9.2 mph - N/A   Clear
10:55 AM 46.4 °F 41.5 °F 42.8 °F 87% 30.33 in - South 10.4 mph - N/A   Clear
11:25 AM 48.2 °F - 42.8 °F 82% 30.33 in - South 12.7 mph - N/A   Clear
11:55 AM 48.2 °F - 42.8 °F 82% 30.33 in - SSW 12.7 mph - N/A   Clear
12:25 PM 48.2 °F - 42.8 °F 82% 30.33 in - South 12.7 mph - N/A   Clear
12:55 PM 48.2 °F - 42.8 °F 82% 30.33 in - South 12.7 mph - N/A   Clear
1:00 PM 48 °F - 42 °F 72% 30.34 in 16 mi South 11.2 mph - -   Partly Cloudy
1:25 PM 48.2 °F - 42.8 °F 82% 30.33 in - South 15.0 mph - N/A   Clear
1:55 PM 48.2 °F - 42.8 °F 82% 30.30 in - South 15.0 mph - N/A   Clear
2:25 PM 48.2 °F - 41.0 °F 76% 30.30 in - South 16.1 mph - N/A   Clear
2:55 PM 48.2 °F - 41.0 °F 76% 30.30 in - South 16.1 mph - N/A   Clear
3:25 PM 48.2 °F - 41.0 °F 76% 30.30 in - South 13.8 mph - N/A   Clear
3:55 PM 48.2 °F - 41.0 °F 76% 30.30 in - South 11.5 mph - N/A   Clear
4:00 PM 48 °F - 42 °F 72% 30.31 in 19 mi South 11.2 mph - -   Overcast
4:25 PM 48.2 °F - 41.0 °F 76% 30.30 in 6.2 mi South 11.5 mph - N/A Rain Light Rain
4:55 PM 46.4 °F 40.7 °F 42.8 °F 87% 30.30 in 6.2 mi South 12.7 mph - N/A Rain Light Rain
5:25 PM 48.2 °F - 41.0 °F 76% 30.30 in - South 13.8 mph - N/A   Clear
5:55 PM 46.4 °F 40.1 °F 41.0 °F 81% 30.27 in - South 15.0 mph - N/A   Clear
6:25 PM 48.2 °F - 41.0 °F 76% 30.27 in - South 17.3 mph - N/A   Clear
6:55 PM 48.2 °F - 41.0 °F 76% 30.27 in 6.2 mi South 17.3 mph - N/A   Mostly Cloudy
7:00 PM 47 °F - 41 °F 71% 30.30 in 25 mi South 15.7 mph - -   Partly Cloudy
7:25 PM 46.4 °F 39.8 °F 41.0 °F 81% 30.27 in 6.2 mi South 16.1 mph - N/A   Scattered Clouds
7:55 PM 46.4 °F 40.4 °F 41.0 °F 81% 30.27 in 6.2 mi South 13.8 mph - N/A   Partly Cloudy
8:25 PM 46.4 °F 40.1 °F 41.0 °F 81% 30.27 in 6.2 mi South 15.0 mph - N/A Rain Light Rain
8:55 PM 46.4 °F 39.5 °F 39.2 °F 76% 30.27 in 6.2 mi South 17.3 mph - N/A   Scattered Clouds
9:25 PM 46.4 °F 39.5 °F 37.4 °F 71% 30.27 in 6.2 mi South 17.3 mph - N/A   Mostly Cloudy
9:55 PM 46.4 °F 39.8 °F 37.4 °F 71% 30.27 in 6.2 mi South 16.1 mph - N/A   Mostly Cloudy
10:00 PM 47 °F - 38 °F 60% 30.29 in 28 mi South 15.7 mph - -   Partly Cloudy
10:25 PM 46.4 °F 40.1 °F 37.4 °F 71% 30.27 in 6.2 mi South 15.0 mph - N/A   Overcast
10:55 PM 46.4 °F 39.8 °F 37.4 °F 71% 30.27 in 6.2 mi South 16.1 mph - N/A   Overcast
11:25 PM 46.4 °F 39.8 °F 37.4 °F 71% 30.27 in 6.2 mi South 16.1 mph - N/A   Light Drizzle
11:55 PM 46.4 °F 39.8 °F 37.4 °F 71% 30.27 in 6.2 mi SSW 16.1 mph - N/A   Light Drizzle